Location: Angwan Shehu
(11.2514°N, 7.4613°E)
Time: 06:08:28
(UTC+00:00)

Aurora 2 Rocket - Pass Details

Date: 14 November 2019
Orbit: 390 x 1747 km, 25.0° (Epoch: 13 December)

Event Time Altitude Azimuth Distance (km) Brightness Sun altitude
Rises 18:56:08 0° 269° (W) 2,796 7.1 -27.4°
Reaches altitude 10° 18:58:15 10° 277° (W) 2,050 6.0 -27.9°
Enters shadow 19:02:19 38° 335° (NNW) 1,190 4.0 -28.9°
